| time (UTC) | temp F | wind direction | speed knots | gust knots | rain 1hr in | rain 24hr in | rain mn in | humidity % | barometer mb |
| 20260506045104 | 63 | 186 | 1.7 | 2.6 | 0.00 | 0.00 | 0.00 | 81 | 1014.8 |
| 20260506044602 | 64 | 196 | 0.9 | 0.9 | 0.00 | 0.00 | 0.00 | 81 | 1014.6 |
| 20260506044058 | 64 | 144 | 0.9 | 0.9 | 0.00 | 0.00 | 0.00 | 81 | 1014.7 |
| 20260506043555 | 64 | 194 | 1.7 | 2.6 | 0.00 | 0.00 | 0.00 | 81 | 1014.7 |
| 20260506043054 | 64 | 187 | 1.7 | 1.7 | 0.00 | 0.00 | 0.00 | 80 | 1014.6 |
| 20260506042552 | 64 | 195 | 0.9 | 0.9 | 0.00 | 0.00 | 0.00 | 80 | 1014.9 |
| 20260506042050 | 64 | 208 | 0.9 | 0.9 | 0.00 | 0.00 | 0.00 | 80 | 1014.6 |
| 20260506041548 | 64 | 200 | 0.9 | 1.7 | 0.00 | 0.00 | 0.00 | 80 | 1014.6 |
| 20260506041045 | 64 | 197 | 1.7 | 1.7 | 0.00 | 0.00 | 0.00 | 79 | 1014.8 |
| 20260506040543 | 64 | 204 | 1.7 | 1.7 | 0.00 | 0.00 | 0.00 | 79 | 1015.1 |
| 20260506040038 | 64 | 204 | 1.7 | 1.7 | 0.00 | 0.00 | 0.00 | 79 | 1014.7 |
| 20260506035536 | 65 | 151 | 1.7 | 2.6 | 0.00 | 0.00 | 0.00 | 78 | 1014.6 |
| 20260506035032 | 65 | 221 | 1.7 | 1.7 | 0.00 | 0.00 | 0.00 | 78 | 1014.8 |
| 20260506034530 | 65 | 173 | 0.9 | 1.7 | 0.00 | 0.00 | 0.00 | 77 | 1014.8 |
| 20260506034026 | 65 | 208 | 1.7 | 1.7 | 0.00 | 0.00 | 0.00 | 77 | 1014.9 |
| 20260506033524 | 65 | 214 | 0.9 | 1.7 | 0.00 | 0.00 | 0.00 | 76 | 1014.7 |
| 20260506033021 | 65 | 189 | 0.9 | 0.9 | 0.00 | 0.00 | 0.00 | 76 | 1014.9 |
| 20260506032518 | 66 | 176 | 2.6 | 2.6 | 0.00 | 0.00 | 0.00 | 75 | 1014.8 |
| 20260506032015 | 66 | 194 | 0.9 | 0.9 | 0.00 | 0.00 | 0.00 | 74 | 1014.9 |
| 20260506031513 | 66 | 210 | 0.9 | 0.9 | 0.00 | 0.00 | 0.00 | 74 | 1015.1 |
| 20260506031009 | 66 | 193 | 0.9 | 1.7 | 0.00 | 0.00 | 0.00 | 73 | 1015.1 |
| 20260506030507 | 66 | 222 | 3.5 | 5.2 | 0.00 | 0.00 | 0.00 | 73 | 1014.9 |
| 20260506030004 | 66 | 184 | 0.9 | 1.7 | 0.00 | 0.00 | 0.00 | 72 | 1015.1 |
| 20260506025501 | 67 | 204 | 1.7 | 1.7 | 0.00 | 0.00 | 0.00 | 71 | 1015.3 |
| 20260506024957 | 67 | 155 | 1.7 | 1.7 | 0.00 | 0.00 | 0.00 | 71 | 1015.2 |
| 20260506024454 | 67 | 204 | 0.0 | 0.9 | 0.00 | 0.00 | 0.00 | 71 | 1015.1 |
| 20260506023950 | 67 | 195 | 1.7 | 2.6 | 0.00 | 0.00 | 0.00 | 70 | 1015.1 |
| 20260506023447 | 67 | 232 | 2.6 | 2.6 | 0.00 | 0.00 | 0.00 | 70 | 1015.1 |
| 20260506022944 | 67 | 245 | 1.7 | 1.7 | 0.00 | 0.00 | 0.00 | 70 | 1015.3 |
| 20260506022441 | 67 | 124 | 4.3 | 8.7 | 0.00 | 0.00 | 0.00 | 69 | 1015.1 |
| 20260506021939 | 68 | 218 | 1.7 | 1.7 | 0.00 | 0.00 | 0.00 | 69 | 1015.2 |
| 20260506021436 | 68 | 180 | 1.7 | 1.7 | 0.00 | 0.00 | 0.00 | 68 | 1014.9 |
| 20260506020933 | 68 | 182 | 1.7 | 1.7 | 0.00 | 0.00 | 0.00 | 68 | 1014.9 |
| 20260506020431 | 68 | 207 | 0.0 | 0.9 | 0.00 | 0.00 | 0.00 | 67 | 1014.7 |
| 20260506015928 | 69 | 194 | 1.7 | 2.6 | 0.00 | 0.00 | 0.00 | 66 | 1015.0 |
| 20260506015426 | 69 | 220 | 2.6 | 2.6 | 0.00 | 0.00 | 0.00 | 66 | 1014.5 |
| 20260506014922 | 69 | 216 | 1.7 | 4.3 | 0.00 | 0.00 | 0.00 | 66 | 1014.8 |
| 20260506014419 | 69 | 211 | 2.6 | 4.3 | 0.00 | 0.00 | 0.00 | 66 | 1014.7 |
| 20260506013916 | 69 | 249 | 1.7 | 4.3 | 0.00 | 0.00 | 0.00 | 65 | 1014.5 |
| 20260506013414 | 69 | 223 | 0.9 | 0.9 | 0.00 | 0.00 | 0.00 | 64 | 1014.6 |
| 20260506012910 | 70 | 225 | 1.7 | 2.6 | 0.00 | 0.00 | 0.00 | 64 | 1014.7 |
| 20260506012406 | 70 | 202 | 0.9 | 0.9 | 0.00 | 0.00 | 0.00 | 63 | 1014.4 |
| 20260506011903 | 70 | 202 | 0.9 | 0.9 | 0.00 | 0.00 | 0.00 | 63 | 1014.2 |
| 20260506011400 | 70 | 182 | 0.9 | 0.9 | 0.00 | 0.00 | 0.00 | 62 | 1014.1 |
| 20260506010857 | 71 | 204 | 0.0 | 0.9 | 0.00 | 0.00 | 0.00 | 61 | 1014.2 |
| 20260506010356 | 71 | 200 | 0.0 | 0.9 | 0.00 | 0.00 | 0.00 | 60 | 1014.2 |
| 20260506005852 | 71 | 201 | 0.0 | 0.9 | 0.00 | 0.00 | 0.00 | 60 | 1014.0 |
| 20260506005350 | 71 | 196 | 0.9 | 1.7 | 0.00 | 0.00 | 0.00 | 59 | 1014.0 |
| 20260506004845 | 71 | 198 | 0.0 | 0.9 | 0.00 | 0.00 | 0.00 | 59 | 1014.0 |
| 20260506004343 | 72 | 186 | 2.6 | 2.6 | 0.00 | 0.00 | 0.00 | 58 | 1013.8 |
| 20260506003839 | 72 | 186 | 0.9 | 0.9 | 0.00 | 0.00 | 0.00 | 58 | 1013.8 |
| 20260506003335 | 72 | 157 | 2.6 | 2.6 | 0.00 | 0.00 | 0.00 | 58 | 1013.7 |
| 20260506002832 | 72 | 145 | 1.7 | 1.7 | 0.00 | 0.00 | 0.00 | 58 | 1013.7 |
| 20260506002328 | 73 | 193 | 1.7 | 2.6 | 0.00 | 0.00 | 0.00 | 57 | 1013.5 |
| 20260506001824 | 73 | 147 | 1.7 | 2.6 | 0.00 | 0.00 | 0.00 | 57 | 1013.4 |
| 20260506001321 | 73 | 210 | 0.9 | 1.7 | 0.00 | 0.00 | 0.00 | 58 | 1013.5 |
| 20260506000818 | 73 | 165 | 0.9 | 1.7 | 0.00 | 0.00 | 0.00 | 56 | 1013.4 |
| 20260506000316 | 73 | 212 | 0.9 | 1.7 | 0.00 | 0.00 | 0.00 | 57 | 1013.3 |
| 20260505235812 | 74 | 198 | 0.9 | 0.9 | 0.00 | 0.00 | 0.00 | 56 | 1013.4 |
| 20260505235310 | 74 | 201 | 0.0 | 0.9 | 0.00 | 0.00 | 0.00 | 55 | 1013.5 |
| 20260505234807 | 74 | 143 | 1.7 | 1.7 | 0.00 | 0.00 | 0.00 | 55 | 1013.2 |
| 20260505234305 | 75 | 202 | 0.9 | 0.9 | 0.00 | 0.00 | 0.00 | 54 | 1013.0 |
| 20260505233801 | 75 | 190 | 0.9 | 0.9 | 0.00 | 0.00 | 0.00 | 54 | 1013.1 |
| 20260505233259 | 75 | 214 | 0.9 | 1.7 | 0.00 | 0.00 | 0.00 | 53 | 1013.0 |
| 20260505232756 | 76 | 208 | 0.9 | 1.7 | 0.00 | 0.00 | 0.00 | 52 | 1013.0 |
| 20260505232253 | 76 | 209 | 0.9 | 0.9 | 0.00 | 0.00 | 0.00 | 51 | 1013.1 |
| 20260505231749 | 76 | 197 | 0.9 | 1.7 | 0.00 | 0.00 | 0.00 | 50 | 1013.0 |
| 20260505231249 | 77 | 200 | 0.9 | 0.9 | 0.00 | 0.00 | 0.00 | 47 | 1012.8 |
| 20260505230746 | 77 | 194 | 0.0 | 0.9 | 0.00 | 0.00 | 0.00 | 47 | 1013.2 |
| 20260505230243 | 77 | 181 | 0.9 | 0.9 | 0.00 | 0.00 | 0.00 | 47 | 1013.2 |
| 20260505225739 | 77 | 225 | 1.7 | 1.7 | 0.00 | 0.00 | 0.00 | 47 | 1013.2 |
| 20260505225237 | 77 | 190 | 0.0 | 0.9 | 0.00 | 0.00 | 0.00 | 47 | 1013.1 |
| 20260505224732 | 77 | 207 | 2.6 | 4.3 | 0.00 | 0.00 | 0.00 | 47 | 1013.0 |
| 20260505224230 | 78 | 201 | 0.9 | 0.9 | 0.00 | 0.00 | 0.00 | 48 | 1013.2 |
| 20260505223727 | 78 | 227 | 2.6 | 2.6 | 0.00 | 0.00 | 0.00 | 47 | 1013.0 |
| 20260505223223 | 78 | 197 | 1.7 | 2.6 | 0.00 | 0.00 | 0.00 | 47 | 1013.4 |
| 20260505222719 | 78 | 167 | 0.9 | 0.9 | 0.00 | 0.00 | 0.00 | 46 | 1013.3 |
| 20260505222215 | 78 | 195 | 0.9 | 1.7 | 0.00 | 0.00 | 0.00 | 47 | 1013.2 |
| 20260505221713 | 77 | 203 | 0.9 | 0.9 | 0.00 | 0.00 | 0.00 | 45 | 1013.5 |
| 20260505221209 | 77 | 193 | 1.7 | 1.7 | 0.00 | 0.00 | 0.00 | 46 | 1013.4 |
| 20260505220706 | 78 | 212 | 0.9 | 0.9 | 0.00 | 0.00 | 0.00 | 47 | 1013.6 |
| 20260505220204 | 78 | 232 | 2.6 | 4.3 | 0.00 | 0.00 | 0.00 | 46 | 1013.6 |
| 20260505215702 | 78 | 183 | 0.9 | 0.9 | 0.00 | 0.00 | 0.00 | 45 | 1013.5 |
| 20260505215159 | 79 | 184 | 0.9 | 0.9 | 0.00 | 0.00 | 0.00 | 45 | 1013.7 |
| 20260505214657 | 79 | 163 | 2.6 | 2.6 | 0.00 | 0.00 | 0.00 | 45 | 1013.4 |
| 20260505214154 | 79 | 200 | 2.6 | 2.6 | 0.00 | 0.00 | 0.00 | 44 | 1013.5 |
| 20260505213652 | 79 | 218 | 4.3 | 5.2 | 0.00 | 0.00 | 0.00 | 45 | 1013.4 |
| 20260505213148 | 79 | 172 | 2.6 | 6.1 | 0.00 | 0.00 | 0.00 | 45 | 1013.4 |
| 20260505212644 | 79 | 242 | 0.9 | 1.7 | 0.00 | 0.00 | 0.00 | 44 | 1013.6 |
| 20260505212142 | 79 | 185 | 2.6 | 2.6 | 0.00 | 0.00 | 0.00 | 46 | 1013.3 |
| 20260505211639 | 79 | 208 | 0.9 | 1.7 | 0.00 | 0.00 | 0.00 | 47 | 1013.6 |
| 20260505211136 | 79 | 232 | 2.6 | 2.6 | 0.00 | 0.00 | 0.00 | 44 | 1013.4 |
| 20260505210633 | 79 | 202 | 0.9 | 1.7 | 0.00 | 0.00 | 0.00 | 44 | 1013.5 |
| 20260505210129 | 79 | 211 | 1.7 | 2.6 | 0.00 | 0.00 | 0.00 | 46 | 1013.2 |
| 20260505205627 | 78 | 205 | 0.9 | 0.9 | 0.00 | 0.00 | 0.00 | 46 | 1013.5 |
| 20260505205125 | 78 | 169 | 2.6 | 2.6 | 0.00 | 0.00 | 0.00 | 45 | 1013.4 |
| 20260505204621 | 79 | 179 | 0.0 | 0.0 | 0.00 | 0.00 | 0.00 | 44 | 1013.6 |
| 20260505204119 | 80 | 187 | 0.9 | 0.9 | 0.00 | 0.00 | 0.00 | 44 | 1013.6 |
| 20260505203615 | 79 | 197 | 2.6 | 2.6 | 0.00 | 0.00 | 0.00 | 46 | 1013.8 |
| 20260505203113 | 79 | 210 | 2.6 | 2.6 | 0.00 | 0.00 | 0.00 | 45 | 1013.6 |
| 20260505202608 | 79 | 193 | 1.7 | 1.7 | 0.00 | 0.00 | 0.00 | 45 | 1013.8 |
| 20260505202105 | 78 | 236 | 2.6 | 2.6 | 0.00 | 0.00 | 0.00 | 45 | 1013.7 |
| 20260505201601 | 79 | 201 | 1.7 | 2.6 | 0.00 | 0.00 | 0.00 | 44 | 1013.8 |
| 20260505201059 | 79 | 203 | 0.9 | 1.7 | 0.00 | 0.00 | 0.00 | 45 | 1013.8 |
| 20260505200557 | 80 | 205 | 0.0 | 0.9 | 0.00 | 0.00 | 0.00 | 43 | 1013.7 |
| 20260505200054 | 80 | 228 | 0.9 | 1.7 | 0.00 | 0.00 | 0.00 | 43 | 1013.7 |
| 20260505195550 | 81 | 181 | 0.9 | 1.7 | 0.00 | 0.00 | 0.00 | 43 | 1014.1 |
| 20260505195047 | 80 | 203 | 0.9 | 0.9 | 0.00 | 0.00 | 0.00 | 43 | 1014.0 |
| 20260505194544 | 80 | 224 | 2.6 | 2.6 | 0.00 | 0.00 | 0.00 | 42 | 1014.3 |
| 20260505194040 | 80 | 222 | 2.6 | 2.6 | 0.00 | 0.00 | 0.00 | 41 | 1014.4 |
| 20260505193537 | 80 | 201 | 0.9 | 0.9 | 0.00 | 0.00 | 0.00 | 41 | 1014.3 |
| 20260505193034 | 80 | 179 | 0.9 | 1.7 | 0.00 | 0.00 | 0.00 | 43 | 1014.4 |
| 20260505192533 | 79 | 238 | 1.7 | 1.7 | 0.00 | 0.00 | 0.00 | 44 | 1014.5 |
| 20260505192030 | 80 | 233 | 1.7 | 2.6 | 0.00 | 0.00 | 0.00 | 43 | 1014.4 |
| 20260505191528 | 80 | 242 | 1.7 | 1.7 | 0.00 | 0.00 | 0.00 | 42 | 1014.6 |
| 20260505191026 | 81 | 230 | 3.5 | 4.3 | 0.00 | 0.00 | 0.00 | 41 | 1014.7 |
| 20260505190520 | 80 | 216 | 2.6 | 4.3 | 0.00 | 0.00 | 0.00 | 41 | 1015.0 |
| 20260505190017 | 80 | 112 | 1.7 | 2.6 | 0.00 | 0.00 | 0.00 | 42 | 1015.0 |
| 20260505185514 | 81 | 233 | 0.9 | 0.9 | 0.00 | 0.00 | 0.00 | 41 | 1015.0 |
| 20260505185010 | 80 | 165 | 1.7 | 1.7 | 0.00 | 0.00 | 0.00 | 41 | 1015.1 |
| 20260505184507 | 80 | 243 | 0.9 | 1.7 | 0.00 | 0.00 | 0.00 | 41 | 1015.3 |
| 20260505184003 | 80 | 209 | 0.0 | 0.9 | 0.00 | 0.00 | 0.00 | 42 | 1015.0 |
| 20260505183501 | 80 | 289 | 2.6 | 4.3 | 0.00 | 0.00 | 0.00 | 42 | 1015.2 |
| 20260505182957 | 81 | 195 | 0.9 | 0.9 | 0.00 | 0.00 | 0.00 | 42 | 1015.3 |
| 20260505182454 | 80 | 228 | 1.7 | 2.6 | 0.00 | 0.00 | 0.00 | 41 | 1015.4 |
| 20260505181950 | 80 | 210 | 0.9 | 1.7 | 0.00 | 0.00 | 0.00 | 42 | 1015.5 |
| 20260505181447 | 79 | 181 | 2.6 | 4.3 | 0.00 | 0.00 | 0.00 | 43 | 1015.5 |
| 20260505180944 | 80 | 206 | 0.9 | 1.7 | 0.00 | 0.00 | 0.00 | 43 | 1015.6 |
| 20260505180440 | 80 | 211 | 0.9 | 1.7 | 0.00 | 0.00 | 0.00 | 44 | 1015.5 |
| 20260505175937 | 80 | 214 | 0.9 | 0.9 | 0.00 | 0.00 | 0.00 | 42 | 1015.5 |
| 20260505175434 | 79 | 208 | 0.0 | 0.0 | 0.00 | 0.00 | 0.00 | 45 | 1015.4 |
| 20260505174930 | 80 | 232 | 1.7 | 2.6 | 0.00 | 0.00 | 0.00 | 44 | 1015.6 |
| 20260505174428 | 79 | 204 | 0.0 | 0.0 | 0.00 | 0.00 | 0.00 | 45 | 1015.4 |
| 20260505173923 | 79 | 176 | 1.7 | 1.7 | 0.00 | 0.00 | 0.00 | 45 | 1015.5 |
| 20260505173420 | 80 | 218 | 0.9 | 1.7 | 0.00 | 0.00 | 0.00 | 46 | 1015.7 |
| 20260505172917 | 79 | 222 | 0.9 | 0.9 | 0.00 | 0.00 | 0.00 | 45 | 1015.7 |
| 20260505172415 | 80 | 214 | 1.7 | 1.7 | 0.00 | 0.00 | 0.00 | 45 | 1015.9 |
| 20260505171914 | 80 | 207 | 0.9 | 0.9 | 0.00 | 0.00 | 0.00 | 45 | 1015.6 |
| 20260505171412 | 79 | 224 | 2.6 | 2.6 | 0.00 | 0.00 | 0.00 | 47 | 1015.6 |
| 20260505170908 | 79 | 246 | 1.7 | 2.6 | 0.00 | 0.00 | 0.00 | 46 | 1015.6 |
| 20260505170405 | 79 | 172 | 0.9 | 1.7 | 0.00 | 0.00 | 0.00 | 46 | 1015.9 |
| 20260505165900 | 79 | 176 | 2.6 | 2.6 | 0.00 | 0.00 | 0.00 | 50 | 1015.7 |
| 20260505165356 | 78 | 236 | 1.7 | 2.6 | 0.00 | 0.00 | 0.00 | 49 | 1015.9 |
| 20260505164852 | 79 | 176 | 1.7 | 1.7 | 0.00 | 0.00 | 0.00 | 47 | 1016.1 |
| 20260505164349 | 78 | 216 | 0.9 | 0.9 | 0.00 | 0.00 | 0.00 | 49 | 1016.1 |
| 20260505163847 | 78 | 240 | 1.7 | 1.7 | 0.00 | 0.00 | 0.00 | 49 | 1016.1 |
| 20260505163346 | 78 | 207 | 0.9 | 0.9 | 0.00 | 0.00 | 0.00 | 48 | 1016.1 |
| 20260505162844 | 78 | 183 | 0.9 | 0.9 | 0.00 | 0.00 | 0.00 | 50 | 1016.1 |
| 20260505162340 | 78 | 149 | 0.9 | 1.7 | 0.00 | 0.00 | 0.00 | 51 | 1016.2 |
| 20260505161837 | 77 | 200 | 1.7 | 2.6 | 0.00 | 0.00 | 0.00 | 51 | 1016.2 |
| 20260505161334 | 76 | 245 | 1.7 | 1.7 | 0.00 | 0.00 | 0.00 | 52 | 1016.2 |
| 20260505160831 | 77 | 161 | 2.6 | 2.6 | 0.00 | 0.00 | 0.00 | 53 | 1016.2 |
| 20260505160329 | 77 | 186 | 1.7 | 1.7 | 0.00 | 0.00 | 0.00 | 54 | 1016.3 |
| 20260505153308 | 75 | 249 | 2.6 | 2.6 | 0.00 | 0.00 | 0.00 | 54 | 1016.8 |
| 20260505152805 | 75 | 244 | 1.7 | 2.6 | 0.00 | 0.00 | 0.00 | 55 | 1016.7 |
| 20260505152304 | 75 | 187 | 0.0 | 0.0 | 0.00 | 0.00 | 0.00 | 56 | 1016.6 |
| 20260505151755 | 75 | 230 | 1.7 | 2.6 | 0.00 | 0.00 | 0.00 | 57 | 1016.8 |
| 20260505151253 | 75 | 216 | 0.9 | 0.9 | 0.00 | 0.00 | 0.00 | 57 | 1016.7 |
| 20260505150750 | 75 | 231 | 1.7 | 1.7 | 0.00 | 0.00 | 0.00 | 57 | 1016.7 |
| 20260505150248 | 74 | 212 | 0.9 | 0.9 | 0.00 | 0.00 | 0.00 | 59 | 1017.1 |
| 20260505140217 | 70 | 44 | 0.9 | 0.9 | 0.00 | 0.00 | 0.00 | 65 | 1016.8 |
| 20260505130141 | 65 | 233 | 1.7 | 1.7 | 0.00 | 0.00 | 0.00 | 72 | 1016.6 |
| 20260505124631 | 64 | 243 | 1.7 | 1.7 | 0.00 | 0.00 | 0.00 | 72 | 1016.7 |
| 20260505124127 | 64 | 201 | 0.9 | 0.9 | 0.00 | 0.00 | 0.00 | 73 | 1016.7 |
| 20260505123623 | 63 | 202 | 0.0 | 0.9 | 0.00 | 0.00 | 0.00 | 73 | 1016.5 |
| 20260505123120 | 62 | 182 | 0.9 | 0.9 | 0.00 | 0.00 | 0.00 | 75 | 1016.7 |
| 20260505122617 | 62 | 231 | 0.9 | 0.9 | 0.00 | 0.00 | 0.00 | 75 | 1016.9 |
| 20260505122114 | 61 | 195 | 0.0 | 0.9 | 0.00 | 0.00 | 0.00 | 76 | 1017.0 |
| 20260505121610 | 60 | 193 | 0.0 | 0.0 | 0.00 | 0.00 | 0.00 | 78 | 1017.1 |
| 20260505121107 | 60 | 197 | 0.0 | 0.0 | 0.00 | 0.00 | 0.00 | 79 | 1016.8 |
| 20260505120604 | 60 | 174 | 0.0 | 0.0 | 0.00 | 0.00 | 0.00 | 79 | 1017.0 |
| 20260505120100 | 59 | 173 | 0.0 | 0.0 | 0.00 | 0.00 | 0.00 | 82 | 1016.8 |
| 20260505115554 | 58 | 173 | 0.0 | 0.0 | 0.00 | 0.00 | 0.00 | 86 | 1016.8 |
| 20260505115052 | 56 | 173 | 0.9 | 0.9 | 0.00 | 0.00 | 0.00 | 90 | 1016.8 |
| 20260505114549 | 55 | 175 | 0.0 | 0.0 | 0.00 | 0.00 | 0.00 | 92 | 1016.7 |
| 20260505114045 | 54 | 177 | 0.0 | 0.0 | 0.00 | 0.00 | 0.00 | 93 | 1016.8 |
| 20260505113541 | 54 | 177 | 0.0 | 0.0 | 0.00 | 0.00 | 0.00 | 93 | 1016.7 |
| 20260505113038 | 53 | 177 | 0.0 | 0.0 | 0.00 | 0.00 | 0.00 | 93 | 1016.6 |
| 20260505112534 | 53 | 177 | 0.0 | 0.0 | 0.00 | 0.00 | 0.00 | 93 | 1016.5 |
| 20260505112032 | 53 | 177 | 0.0 | 0.0 | 0.00 | 0.00 | 0.00 | 93 | 1016.5 |
| 20260505111526 | 52 | 177 | 0.0 | 0.0 | 0.00 | 0.00 | 0.00 | 93 | 1016.4 |
| 20260505111023 | 52 | 179 | 0.0 | 0.0 | 0.00 | 0.00 | 0.00 | 93 | 1016.3 |
| 20260505110519 | 51 | 180 | 0.0 | 0.0 | 0.00 | 0.00 | 0.00 | 93 | 1016.2 |
| 20260505101952 | 50 | 181 | 0.0 | 0.0 | 0.00 | 0.00 | 0.00 | 91 | 1015.7 |
| 20260505101450 | 50 | 181 | 0.0 | 0.0 | 0.00 | 0.00 | 0.00 | 91 | 1015.7 |
| 20260505100946 | 50 | 181 | 0.0 | 0.0 | 0.00 | 0.00 | 0.00 | 90 | 1015.6 |
| 20260505100443 | 51 | 181 | 0.0 | 0.0 | 0.00 | 0.00 | 0.00 | 90 | 1015.4 |
| 20260505095939 | 50 | 181 | 0.0 | 0.0 | 0.00 | 0.00 | 0.00 | 90 | 1015.6 |
| 20260505095436 | 50 | 181 | 0.0 | 0.0 | 0.00 | 0.00 | 0.00 | 89 | 1015.4 |
| 20260505094932 | 51 | 181 | 0.0 | 0.0 | 0.00 | 0.00 | 0.00 | 89 | 1015.5 |
| 20260505094429 | 51 | 181 | 0.0 | 0.0 | 0.00 | 0.00 | 0.00 | 89 | 1015.4 |
| 20260505093925 | 51 | 181 | 0.0 | 0.0 | 0.00 | 0.00 | 0.00 | 88 | 1015.6 |
| 20260505093422 | 51 | 181 | 0.0 | 0.0 | 0.00 | 0.00 | 0.00 | 88 | 1015.6 |
| 20260505092919 | 52 | 181 | 0.0 | 0.0 | 0.00 | 0.00 | 0.00 | 88 | 1015.3 |
| 20260505092417 | 52 | 181 | 0.0 | 0.0 | 0.00 | 0.00 | 0.00 | 87 | 1015.2 |
| 20260505091914 | 52 | 181 | 0.0 | 0.0 | 0.00 | 0.00 | 0.00 | 87 | 1015.4 |
| 20260505091412 | 52 | 181 | 0.0 | 0.0 | 0.00 | 0.00 | 0.00 | 86 | 1015.4 |
| 20260505090910 | 52 | 181 | 0.0 | 0.0 | 0.00 | 0.00 | 0.00 | 86 | 1015.3 |
| 20260505090408 | 53 | 181 | 0.0 | 0.0 | 0.00 | 0.00 | 0.00 | 85 | 1015.4 |
| 20260505085905 | 53 | 181 | 0.0 | 0.0 | 0.00 | 0.00 | 0.00 | 84 | 1015.3 |
| 20260505085403 | 53 | 181 | 0.0 | 0.0 | 0.00 | 0.00 | 0.00 | 84 | 1015.2 |
| 20260505084901 | 54 | 181 | 0.0 | 0.0 | 0.00 | 0.00 | 0.00 | 84 | 1015.3 |
| 20260505084359 | 54 | 181 | 0.0 | 0.0 | 0.00 | 0.00 | 0.00 | 83 | 1015.1 |
| 20260505083856 | 54 | 181 | 0.0 | 0.0 | 0.00 | 0.00 | 0.00 | 82 | 1015.3 |
| 20260505083354 | 55 | 181 | 0.0 | 0.0 | 0.00 | 0.00 | 0.00 | 81 | 1015.1 |
| 20260505082849 | 55 | 180 | 0.0 | 0.0 | 0.00 | 0.00 | 0.00 | 81 | 1014.9 |
| 20260505082346 | 55 | 184 | 0.0 | 0.0 | 0.00 | 0.00 | 0.00 | 81 | 1015.3 |
| 20260505081842 | 55 | 184 | 0.0 | 0.0 | 0.00 | 0.00 | 0.00 | 81 | 1015.1 |
| 20260505081339 | 55 | 184 | 0.0 | 0.0 | 0.00 | 0.00 | 0.00 | 80 | 1015.0 |
| 20260505080836 | 55 | 184 | 0.0 | 0.0 | 0.00 | 0.00 | 0.00 | 79 | 1014.9 |
| 20260505080332 | 56 | 184 | 0.0 | 0.0 | 0.00 | 0.00 | 0.00 | 79 | 1014.8 |
| 20260505075827 | 56 | 184 | 0.0 | 0.0 | 0.00 | 0.00 | 0.00 | 79 | 1014.8 |
| 20260505075325 | 56 | 183 | 0.0 | 0.0 | 0.00 | 0.00 | 0.00 | 79 | 1014.9 |
| 20260505074822 | 56 | 198 | 0.0 | 0.0 | 0.00 | 0.00 | 0.00 | 78 | 1014.9 |
| 20260505074319 | 56 | 200 | 0.9 | 0.9 | 0.00 | 0.00 | 0.00 | 78 | 1014.9 |
| 20260505073816 | 56 | 196 | 0.0 | 0.0 | 0.00 | 0.00 | 0.00 | 78 | 1014.7 |
| 20260505073314 | 56 | 191 | 0.0 | 0.0 | 0.00 | 0.00 | 0.00 | 77 | 1014.7 |
| 20260505072811 | 57 | 191 | 0.0 | 0.0 | 0.00 | 0.00 | 0.00 | 77 | 1014.9 |
| 20260505072307 | 57 | 187 | 0.0 | 0.0 | 0.00 | 0.00 | 0.00 | 77 | 1014.9 |
| 20260505071803 | 57 | 195 | 0.0 | 0.0 | 0.00 | 0.00 | 0.00 | 77 | 1014.7 |
| 20260505071300 | 57 | 191 | 0.0 | 0.0 | 0.00 | 0.00 | 0.00 | 77 | 1014.8 |
| 20260505070758 | 57 | 191 | 0.0 | 0.0 | 0.00 | 0.00 | 0.00 | 77 | 1014.7 |
| 20260505070254 | 57 | 184 | 0.0 | 0.0 | 0.00 | 0.00 | 0.00 | 77 | 1014.7 |
| 20260505065749 | 57 | 184 | 0.0 | 0.0 | 0.00 | 0.00 | 0.00 | 76 | 1014.8 |
| 20260505065246 | 57 | 187 | 0.0 | 0.0 | 0.00 | 0.00 | 0.00 | 76 | 1014.7 |
| 20260505064743 | 58 | 188 | 0.0 | 0.0 | 0.00 | 0.00 | 0.00 | 75 | 1014.7 |
| 20260505064241 | 58 | 186 | 0.0 | 0.0 | 0.00 | 0.00 | 0.00 | 75 | 1014.7 |
| 20260505063738 | 58 | 187 | 0.0 | 0.0 | 0.00 | 0.00 | 0.00 | 74 | 1014.7 |
| 20260505063234 | 59 | 187 | 0.0 | 0.0 | 0.00 | 0.00 | 0.00 | 74 | 1014.6 |
| 20260505062730 | 59 | 186 | 0.0 | 0.0 | 0.00 | 0.00 | 0.00 | 73 | 1014.9 |
| 20260505062228 | 59 | 105 | 0.0 | 0.9 | 0.00 | 0.00 | 0.00 | 73 | 1014.6 |
| 20260505061725 | 59 | 182 | 0.9 | 0.9 | 0.00 | 0.00 | 0.00 | 74 | 1014.8 |
| 20260505061223 | 59 | 189 | 0.0 | 0.0 | 0.00 | 0.00 | 0.00 | 74 | 1014.9 |
| 20260505060720 | 59 | 198 | 0.0 | 0.0 | 0.00 | 0.00 | 0.00 | 73 | 1014.8 |
| 20260505060217 | 59 | 206 | 0.0 | 0.0 | 0.00 | 0.00 | 0.00 | 73 | 1014.6 |
| 20260505055712 | 60 | 214 | 0.0 | 0.9 | 0.00 | 0.00 | 0.00 | 72 | 1014.8 |
| 20260505055209 | 60 | 187 | 0.0 | 0.0 | 0.00 | 0.00 | 0.00 | 72 | 1014.7 |
| 20260505054707 | 60 | 201 | 0.0 | 0.9 | 0.00 | 0.00 | 0.00 | 71 | 1014.8 |
| 20260505054204 | 60 | 187 | 0.0 | 0.0 | 0.00 | 0.00 | 0.00 | 71 | 1014.7 |
| 20260505053702 | 60 | 211 | 0.0 | 0.0 | 0.00 | 0.00 | 0.00 | 70 | 1014.9 |
| 20260505053158 | 60 | 190 | 0.0 | 0.0 | 0.00 | 0.00 | 0.00 | 71 | 1014.8 |
| 20260505052655 | 60 | 221 | 1.7 | 1.7 | 0.00 | 0.00 | 0.00 | 72 | 1014.8 |
| 20260505052153 | 60 | 193 | 0.0 | 0.0 | 0.00 | 0.00 | 0.00 | 72 | 1014.8 |
| 20260505051650 | 61 | 202 | 0.0 | 0.9 | 0.00 | 0.00 | 0.00 | 72 | 1015.0 |
| 20260505051148 | 61 | 190 | 0.0 | 0.0 | 0.00 | 0.00 | 0.00 | 71 | 1015.0 |
| 20260505050645 | 61 | 213 | 0.9 | 0.9 | 0.00 | 0.00 | 0.00 | 71 | 1015.1 |
| 20260505050143 | 61 | 95 | 0.0 | 0.9 | 0.00 | 0.00 | 0.00 | 70 | 1015.1 |